Year,Month,Day,Hour,Minute,Value (Times are PST for temperature in C)
2015,07,13,00,00,14.30
2015,07,13,00,01,14.30
2015,07,13,00,02,14.30
2015,07,13,00,03,14.30
2015,07,13,00,04,14.30
2015,07,13,00,05,14.20
2015,07,13,00,06,14.20
2015,07,13,00,07,14.20
2015,07,13,00,08,14.20
2015,07,13,00,09,14.20
2015,07,13,00,10,14.20
2015,07,13,00,11,14.20
2015,07,13,00,12,14.20
2015,07,13,00,13,14.20
2015,07,13,00,14,14.20
2015,07,13,00,15,14.20
2015,07,13,00,16,14.20
2015,07,13,00,17,14.20
2015,07,13,00,18,14.20
2015,07,13,00,19,14.20
2015,07,13,00,20,14.20
2015,07,13,00,21,14.20
2015,07,13,00,22,14.20
2015,07,13,00,23,14.20
2015,07,13,00,24,14.20
2015,07,13,00,25,14.30
2015,07,13,00,26,14.30
2015,07,13,00,27,14.30
2015,07,13,00,28,14.30
2015,07,13,00,29,14.30
2015,07,13,00,30,14.30
2015,07,13,00,31,14.30
2015,07,13,00,32,14.30
2015,07,13,00,33,14.30
2015,07,13,00,34,14.30
2015,07,13,00,35,14.30
2015,07,13,00,36,14.30
2015,07,13,00,37,14.30
2015,07,13,00,38,14.30
2015,07,13,00,39,14.30
2015,07,13,00,40,14.30
2015,07,13,00,41,14.40
2015,07,13,00,42,14.40
2015,07,13,00,43,14.40
2015,07,13,00,44,14.40
2015,07,13,00,45,14.40
2015,07,13,00,46,14.40
2015,07,13,00,47,14.30
2015,07,13,00,48,14.30
2015,07,13,00,49,14.40
2015,07,13,00,50,14.40
2015,07,13,00,51,14.40
2015,07,13,00,52,14.40
2015,07,13,00,53,14.40
2015,07,13,00,54,14.40
2015,07,13,00,55,14.40
2015,07,13,00,56,14.40
2015,07,13,00,57,14.40
2015,07,13,00,58,14.40
2015,07,13,00,59,14.40
2015,07,13,01,00,14.40
2015,07,13,01,01,14.40
2015,07,13,01,02,14.50
2015,07,13,01,03,14.50
2015,07,13,01,04,14.50
2015,07,13,01,05,14.50
2015,07,13,01,06,14.50
2015,07,13,01,07,14.50
2015,07,13,01,08,14.50
2015,07,13,01,09,14.50
2015,07,13,01,10,14.50
2015,07,13,01,11,14.50
2015,07,13,01,12,14.60
2015,07,13,01,13,14.60
2015,07,13,01,14,14.60
2015,07,13,01,15,14.60
2015,07,13,01,16,14.60
2015,07,13,01,17,14.70
2015,07,13,01,18,14.70
2015,07,13,01,19,14.70
2015,07,13,01,20,14.70
2015,07,13,01,21,14.70
2015,07,13,01,22,14.80
2015,07,13,01,23,14.80
2015,07,13,01,24,14.80
2015,07,13,01,25,14.80
2015,07,13,01,26,14.80
2015,07,13,01,27,14.80
2015,07,13,01,28,14.90
2015,07,13,01,29,14.90
2015,07,13,01,30,14.90
2015,07,13,01,31,14.90
2015,07,13,01,32,14.80
2015,07,13,01,33,14.80
2015,07,13,01,34,14.80
2015,07,13,01,35,14.80
2015,07,13,01,36,14.80
2015,07,13,01,37,14.80
2015,07,13,01,38,14.80
2015,07,13,01,39,14.80
2015,07,13,01,40,14.80
2015,07,13,01,41,14.80
2015,07,13,01,42,14.80
2015,07,13,01,43,14.80
2015,07,13,01,44,14.80
2015,07,13,01,45,14.80
2015,07,13,01,46,14.80
2015,07,13,01,47,14.80
2015,07,13,01,48,14.80
2015,07,13,01,49,14.80
2015,07,13,01,50,14.80
2015,07,13,01,51,14.80
2015,07,13,01,52,14.80
2015,07,13,01,53,14.80
2015,07,13,01,54,14.80
2015,07,13,01,55,14.90
2015,07,13,01,56,14.90
2015,07,13,01,57,14.90
2015,07,13,01,58,14.90
2015,07,13,01,59,14.90
2015,07,13,02,00,14.90
2015,07,13,02,01,14.90
2015,07,13,02,02,14.90
2015,07,13,02,03,14.90
2015,07,13,02,04,14.90
2015,07,13,02,05,14.90
2015,07,13,02,06,14.90
2015,07,13,02,07,14.90
2015,07,13,02,08,14.90
2015,07,13,02,09,14.90
2015,07,13,02,10,15.00
2015,07,13,02,11,15.00
2015,07,13,02,12,15.00
2015,07,13,02,13,15.00
2015,07,13,02,14,15.00
2015,07,13,02,15,14.90
2015,07,13,02,16,14.90
2015,07,13,02,17,14.90
2015,07,13,02,18,14.90
2015,07,13,02,19,14.90
2015,07,13,02,20,14.90
2015,07,13,02,21,14.90
2015,07,13,02,22,14.90
2015,07,13,02,23,14.90
2015,07,13,02,24,14.90
2015,07,13,02,25,14.90
2015,07,13,02,26,14.90
2015,07,13,02,27,14.90
2015,07,13,02,28,14.90
2015,07,13,02,29,14.90
2015,07,13,02,30,14.90
2015,07,13,02,31,14.90
2015,07,13,02,32,14.90
2015,07,13,02,33,14.90
2015,07,13,02,34,14.90
2015,07,13,02,35,14.90
2015,07,13,02,36,14.90
2015,07,13,02,37,14.90
2015,07,13,02,38,14.90
2015,07,13,02,39,14.90
2015,07,13,02,40,14.90
2015,07,13,02,41,14.90
2015,07,13,02,42,14.90
2015,07,13,02,43,14.90
2015,07,13,02,44,14.90
2015,07,13,02,45,14.90
2015,07,13,02,46,14.90
2015,07,13,02,47,14.80
2015,07,13,02,48,14.80
2015,07,13,02,49,14.80
2015,07,13,02,50,14.80
2015,07,13,02,51,14.80
2015,07,13,02,52,14.80
2015,07,13,02,53,14.80
2015,07,13,02,54,14.70
2015,07,13,02,55,14.70
2015,07,13,02,56,14.70
2015,07,13,02,57,14.70
2015,07,13,02,58,14.70
2015,07,13,02,59,14.60
2015,07,13,03,00,14.60
2015,07,13,03,01,14.60
2015,07,13,03,02,14.60
2015,07,13,03,03,14.60
2015,07,13,04,02,13.90
2015,07,13,04,03,13.90
2015,07,13,04,04,13.90
2015,07,13,04,05,13.90
2015,07,13,04,06,13.80
2015,07,13,04,07,13.80
2015,07,13,04,08,13.80
2015,07,13,04,09,13.80
2015,07,13,04,10,13.80
2015,07,13,04,11,13.80
2015,07,13,04,12,13.70
2015,07,13,04,13,13.70
2015,07,13,04,14,13.70
2015,07,13,04,15,13.70
2015,07,13,04,16,13.70
2015,07,13,04,17,13.70
2015,07,13,04,18,13.70
2015,07,13,04,19,13.60
2015,07,13,04,20,13.60
2015,07,13,04,21,13.60
2015,07,13,04,22,13.60
2015,07,13,04,23,13.50
2015,07,13,04,24,13.50
2015,07,13,04,25,13.50
2015,07,13,04,26,13.50
2015,07,13,04,27,13.40
2015,07,13,04,28,13.40
2015,07,13,04,29,13.40
2015,07,13,04,30,13.30
2015,07,13,04,31,13.30
2015,07,13,04,32,13.30
2015,07,13,04,33,13.30
2015,07,13,04,34,13.30
2015,07,13,04,35,13.30
2015,07,13,04,36,13.30
2015,07,13,04,37,13.30
2015,07,13,04,38,13.20
2015,07,13,04,39,13.20
2015,07,13,04,40,13.20
2015,07,13,04,41,13.20
2015,07,13,04,42,13.20
2015,07,13,04,43,13.20
2015,07,13,04,44,13.10
2015,07,13,04,45,13.10
2015,07,13,04,46,13.10
2015,07,13,04,47,13.10
2015,07,13,04,48,13.10
2015,07,13,04,49,13.10
2015,07,13,04,50,13.10
2015,07,13,04,51,13.10
2015,07,13,04,52,13.00
2015,07,13,04,53,13.00
2015,07,13,04,54,13.00
2015,07,13,04,55,13.00
2015,07,13,04,56,12.90
2015,07,13,04,57,12.90
2015,07,13,04,58,12.90
2015,07,13,04,59,12.90
2015,07,13,05,00,12.90
2015,07,13,05,01,12.90
2015,07,13,05,02,12.90
2015,07,13,05,03,12.90
2015,07,13,05,04,12.80
2015,07,13,05,05,12.80
2015,07,13,05,06,12.80
2015,07,13,05,07,12.80
2015,07,13,05,08,12.80
2015,07,13,05,09,12.80
2015,07,13,05,10,12.80
2015,07,13,05,11,12.80
2015,07,13,05,12,12.80
2015,07,13,05,13,12.80
2015,07,13,05,14,12.80
2015,07,13,05,15,12.70
2015,07,13,05,16,12.70
2015,07,13,05,17,12.70
2015,07,13,05,18,12.70
2015,07,13,05,19,12.70
2015,07,13,05,20,12.70
2015,07,13,05,21,12.70
2015,07,13,05,22,12.70
2015,07,13,05,23,12.70
2015,07,13,05,24,12.70
2015,07,13,05,25,12.60
2015,07,13,05,26,12.60
2015,07,13,05,27,12.60
2015,07,13,05,28,12.60
2015,07,13,05,29,12.60
2015,07,13,05,30,12.60
2015,07,13,05,31,12.60
2015,07,13,05,32,12.60
2015,07,13,05,33,12.60
2015,07,13,05,34,12.60
2015,07,13,05,35,12.60
2015,07,13,05,36,12.60
2015,07,13,05,37,12.60
2015,07,13,05,38,12.60
2015,07,13,05,39,12.60
2015,07,13,05,40,12.60
2015,07,13,05,41,12.60
2015,07,13,05,42,12.60
2015,07,13,05,43,12.60
2015,07,13,05,44,12.60
2015,07,13,05,45,12.50
2015,07,13,05,46,12.50
2015,07,13,05,47,12.50
2015,07,13,05,48,12.50
2015,07,13,05,49,12.50
2015,07,13,05,50,12.50
2015,07,13,05,51,12.50
2015,07,13,05,52,12.50
2015,07,13,05,53,12.50
2015,07,13,05,54,12.50
2015,07,13,05,55,12.50
2015,07,13,05,56,12.50
2015,07,13,05,57,12.50
2015,07,13,05,58,12.60
2015,07,13,05,59,12.60
2015,07,13,06,00,12.60
2015,07,13,06,01,12.60
2015,07,13,06,02,12.60
2015,07,13,06,03,12.60
2015,07,13,06,04,12.60
2015,07,13,06,05,12.60
2015,07,13,06,06,12.60
2015,07,13,06,07,12.70
2015,07,13,06,08,12.70
2015,07,13,06,09,12.70
2015,07,13,06,10,12.70
2015,07,13,06,11,12.70
2015,07,13,06,12,12.70
2015,07,13,06,13,12.60
2015,07,13,06,14,12.60
2015,07,13,06,15,12.60
2015,07,13,06,16,12.60
2015,07,13,06,17,12.70
2015,07,13,06,18,12.70
2015,07,13,06,19,12.70
2015,07,13,06,20,12.70
2015,07,13,06,21,12.70
2015,07,13,06,22,12.70
2015,07,13,06,23,12.70
2015,07,13,06,24,12.70
2015,07,13,06,25,12.70
2015,07,13,06,26,12.70
2015,07,13,06,27,12.60
2015,07,13,06,28,12.60
2015,07,13,06,29,12.60
2015,07,13,06,30,12.60
2015,07,13,06,31,12.60
2015,07,13,06,32,12.60
2015,07,13,06,33,12.60
2015,07,13,06,34,12.60
2015,07,13,06,35,12.60
2015,07,13,06,36,12.60
2015,07,13,06,37,12.60
2015,07,13,06,38,12.60
2015,07,13,06,39,12.60
2015,07,13,06,40,12.50
2015,07,13,06,41,12.60
2015,07,13,06,42,12.50
2015,07,13,06,43,12.60
2015,07,13,06,44,12.60
2015,07,13,06,45,12.60
2015,07,13,06,46,12.60
2015,07,13,06,47,12.70
2015,07,13,06,48,12.70
2015,07,13,06,49,12.70
2015,07,13,06,50,12.70
2015,07,13,06,51,12.70
2015,07,13,06,52,12.70
2015,07,13,06,53,12.70
2015,07,13,06,54,12.70
2015,07,13,06,55,12.70
2015,07,13,06,56,12.70
2015,07,13,06,57,12.80
2015,07,13,06,58,12.80
2015,07,13,06,59,12.80
2015,07,13,07,00,12.80
2015,07,13,07,01,12.80
2015,07,13,07,02,12.90
2015,07,13,07,03,12.90
2015,07,13,07,04,12.90
2015,07,13,07,05,12.90
2015,07,13,07,06,13.00
2015,07,13,07,07,13.00
2015,07,13,07,08,13.10
2015,07,13,07,09,13.10
2015,07,13,07,10,13.20
2015,07,13,07,11,13.20
2015,07,13,07,12,13.30
2015,07,13,07,13,13.30
2015,07,13,07,14,13.30
2015,07,13,07,15,13.30
2015,07,13,07,16,13.40
2015,07,13,07,17,13.40
2015,07,13,07,18,13.40
2015,07,13,07,19,13.50
2015,07,13,07,20,13.50
2015,07,13,07,21,13.60
2015,07,13,07,22,13.70
2015,07,13,07,23,13.70
2015,07,13,07,24,13.80
2015,07,13,07,25,13.80
2015,07,13,07,26,13.90
2015,07,13,07,27,13.90
2015,07,13,07,28,14.00
2015,07,13,07,29,14.00
2015,07,13,07,30,14.10
2015,07,13,07,31,14.10
2015,07,13,07,32,14.20
2015,07,13,07,33,14.30
2015,07,13,07,34,14.30
2015,07,13,07,35,14.40
2015,07,13,07,36,14.50
2015,07,13,07,37,14.60
2015,07,13,07,38,14.60
2015,07,13,07,39,14.70
2015,07,13,07,40,14.70
2015,07,13,07,41,14.80
2015,07,13,07,42,14.90
2015,07,13,07,43,14.90
2015,07,13,07,44,15.00
2015,07,13,07,45,15.00
2015,07,13,07,46,15.10
2015,07,13,07,47,15.10
2015,07,13,07,48,15.20
2015,07,13,07,49,15.20
2015,07,13,07,50,15.30
2015,07,13,07,51,15.40
2015,07,13,07,52,15.50
2015,07,13,07,53,15.50
2015,07,13,07,54,15.60
2015,07,13,07,55,15.60
2015,07,13,07,56,15.70
2015,07,13,07,57,15.80
2015,07,13,07,58,15.80
2015,07,13,07,59,15.90
2015,07,13,08,00,16.00
2015,07,13,08,01,16.00
2015,07,13,08,02,16.10
2015,07,13,08,03,16.10
2015,07,13,08,04,16.20
2015,07,13,08,05,16.20
2015,07,13,08,06,16.20
2015,07,13,08,07,16.30
2015,07,13,08,08,16.30
2015,07,13,08,09,16.40
2015,07,13,08,10,16.40
2015,07,13,08,11,16.40
2015,07,13,08,12,16.40
2015,07,13,08,13,16.50
2015,07,13,08,14,16.50
2015,07,13,08,15,16.60
2015,07,13,08,16,16.60
2015,07,13,08,17,16.60
2015,07,13,08,18,16.60
2015,07,13,08,19,16.60
2015,07,13,08,20,16.60
2015,07,13,08,21,16.70
2015,07,13,08,22,16.70
2015,07,13,08,23,16.80
2015,07,13,08,24,16.90
2015,07,13,08,25,16.90
2015,07,13,08,26,16.90
2015,07,13,08,27,17.00
2015,07,13,08,28,17.00
2015,07,13,08,29,17.00
2015,07,13,08,30,17.10
2015,07,13,08,31,17.10
2015,07,13,08,32,17.10
2015,07,13,08,33,17.10
2015,07,13,08,34,17.10
2015,07,13,08,35,17.10
2015,07,13,08,36,17.10
2015,07,13,08,37,17.10
2015,07,13,08,38,17.20
2015,07,13,08,39,17.20
2015,07,13,08,40,17.20
2015,07,13,08,41,17.30
2015,07,13,08,42,17.30
2015,07,13,08,43,17.40
2015,07,13,08,44,17.40
2015,07,13,08,45,17.40
2015,07,13,08,46,17.40
2015,07,13,08,47,17.50
2015,07,13,08,48,17.50
2015,07,13,08,49,17.60
2015,07,13,08,50,17.60
2015,07,13,08,51,17.60
2015,07,13,08,52,17.70
2015,07,13,08,53,17.70
2015,07,13,08,54,17.70
2015,07,13,08,55,17.80
2015,07,13,08,56,17.80
2015,07,13,08,57,17.80
2015,07,13,08,58,17.80
2015,07,13,08,59,17.90
2015,07,13,09,00,17.90
2015,07,13,09,01,18.00
2015,07,13,09,02,18.10
2015,07,13,09,03,18.10
2015,07,13,09,04,18.20
2015,07,13,09,05,18.30
2015,07,13,09,06,18.40
2015,07,13,09,07,18.40
2015,07,13,09,08,18.40
2015,07,13,09,09,18.40
2015,07,13,09,10,18.30
2015,07,13,09,11,18.30
2015,07,13,09,12,18.30
2015,07,13,09,13,18.30
2015,07,13,09,14,18.40
2015,07,13,09,15,18.40
2015,07,13,09,16,18.50
2015,07,13,09,17,18.50
2015,07,13,09,18,18.60
2015,07,13,09,19,18.60
2015,07,13,09,20,18.70
2015,07,13,09,21,18.80
2015,07,13,09,22,18.90
2015,07,13,09,23,19.00
2015,07,13,09,24,19.10
2015,07,13,09,25,19.10
2015,07,13,09,26,19.10
2015,07,13,09,27,19.10
2015,07,13,09,28,19.10
2015,07,13,09,29,19.00
2015,07,13,09,30,19.00
2015,07,13,09,31,19.00
2015,07,13,09,32,19.10
2015,07,13,09,33,19.00
2015,07,13,09,34,19.10
2015,07,13,09,35,19.10
2015,07,13,09,36,19.10
2015,07,13,09,37,19.10
2015,07,13,09,38,19.20
2015,07,13,09,39,19.20
2015,07,13,09,40,19.20
2015,07,13,09,41,19.30
2015,07,13,09,42,19.30
2015,07,13,09,43,19.40
2015,07,13,09,44,19.40
2015,07,13,09,45,19.40
2015,07,13,09,46,19.50
2015,07,13,09,47,19.50
2015,07,13,09,48,19.60
2015,07,13,09,49,19.60
2015,07,13,09,50,19.70
2015,07,13,09,51,19.80
2015,07,13,09,52,19.90
2015,07,13,09,53,20.00
2015,07,13,09,54,20.00
2015,07,13,09,55,20.10
2015,07,13,09,56,20.10
2015,07,13,09,57,20.10
2015,07,13,09,58,20.10
2015,07,13,09,59,20.10
2015,07,13,10,00,20.00
2015,07,13,10,01,20.00
2015,07,13,10,02,19.90
2015,07,13,10,03,19.90
2015,07,13,10,04,19.90
2015,07,13,10,05,19.90
2015,07,13,10,06,19.90
2015,07,13,10,07,20.00
2015,07,13,10,08,20.10
2015,07,13,10,09,20.20
2015,07,13,10,10,20.10
2015,07,13,10,11,20.10
2015,07,13,10,12,20.10
2015,07,13,10,13,20.10
2015,07,13,10,14,20.10
2015,07,13,10,15,20.10
2015,07,13,10,16,20.10
2015,07,13,10,17,20.10
2015,07,13,10,18,20.10
2015,07,13,10,19,20.20
2015,07,13,10,20,20.20
2015,07,13,10,21,20.30
2015,07,13,10,22,20.40
2015,07,13,10,23,20.40
2015,07,13,10,24,20.40
2015,07,13,10,25,20.40
2015,07,13,10,26,20.50
2015,07,13,10,27,20.50
2015,07,13,10,28,20.60
2015,07,13,10,29,20.50
2015,07,13,10,30,20.50
2015,07,13,10,31,20.60
2015,07,13,10,32,20.60
2015,07,13,10,33,20.70
2015,07,13,10,34,20.70
2015,07,13,10,35,20.60
2015,07,13,10,36,20.60
2015,07,13,10,37,20.40
2015,07,13,10,38,20.30
2015,07,13,10,39,20.30
2015,07,13,10,40,20.40
2015,07,13,10,41,20.40
2015,07,13,10,42,20.50
2015,07,13,10,43,20.60
2015,07,13,10,44,20.70
2015,07,13,10,45,20.70
2015,07,13,10,46,20.80
2015,07,13,10,47,20.80
2015,07,13,10,48,20.90
2015,07,13,10,49,21.00
2015,07,13,10,50,21.10
2015,07,13,10,51,21.20
2015,07,13,10,52,21.20
2015,07,13,10,53,21.20
2015,07,13,10,54,21.20
2015,07,13,10,55,21.20
2015,07,13,10,56,21.10
2015,07,13,10,57,21.10
2015,07,13,10,58,21.10
2015,07,13,10,59,21.10
2015,07,13,11,00,21.20
2015,07,13,11,01,21.20
2015,07,13,11,02,21.20
2015,07,13,11,03,21.20
2015,07,13,11,04,21.20
2015,07,13,11,05,21.20
2015,07,13,11,06,21.30
2015,07,13,11,07,21.30
2015,07,13,11,08,21.40
2015,07,13,11,09,21.40
2015,07,13,11,10,21.40
2015,07,13,11,11,21.50
2015,07,13,11,12,21.60
2015,07,13,11,13,21.60
2015,07,13,11,14,21.60
2015,07,13,11,15,21.60
2015,07,13,11,16,21.60
2015,07,13,11,17,21.60
2015,07,13,11,18,21.60
2015,07,13,11,19,21.60
2015,07,13,11,20,21.60
2015,07,13,11,21,21.60
2015,07,13,11,22,21.70
2015,07,13,11,23,21.70
2015,07,13,11,24,21.60
2015,07,13,11,25,21.70
2015,07,13,11,26,21.80
2015,07,13,11,27,21.80
2015,07,13,11,28,21.80
2015,07,13,11,29,21.80
2015,07,13,11,30,21.90
2015,07,13,11,31,21.90
2015,07,13,11,32,21.90
2015,07,13,11,33,21.90
2015,07,13,11,34,22.00
2015,07,13,11,35,22.00
2015,07,13,11,36,22.10
2015,07,13,11,37,22.00
2015,07,13,11,38,22.00
2015,07,13,11,39,22.00
2015,07,13,11,40,22.00
2015,07,13,11,41,22.00
2015,07,13,11,42,21.90
2015,07,13,11,43,21.90
2015,07,13,11,44,21.90
2015,07,13,11,45,21.90
2015,07,13,11,46,21.90
2015,07,13,11,47,21.90
2015,07,13,11,48,21.90
2015,07,13,11,49,21.90
2015,07,13,11,50,21.80
2015,07,13,11,51,21.70
2015,07,13,11,52,21.60
2015,07,13,11,53,21.60
2015,07,13,11,54,21.60
2015,07,13,11,55,21.60
2015,07,13,11,56,21.60
2015,07,13,11,57,21.70
2015,07,13,11,58,21.80
2015,07,13,11,59,21.90
2015,07,13,12,00,22.00
2015,07,13,12,01,22.00
2015,07,13,12,02,22.00
2015,07,13,12,03,21.90
2015,07,13,12,04,21.90
2015,07,13,12,05,21.90
2015,07,13,12,06,21.90
2015,07,13,12,07,21.80
2015,07,13,12,08,21.80
2015,07,13,12,09,21.70
2015,07,13,12,10,21.70
2015,07,13,12,11,21.50
2015,07,13,12,12,21.30
2015,07,13,12,13,21.10
2015,07,13,12,14,21.00
2015,07,13,12,15,20.70
2015,07,13,12,16,20.50
2015,07,13,12,17,20.20
2015,07,13,12,18,19.90
2015,07,13,12,19,19.60
2015,07,13,12,20,19.40
2015,07,13,12,21,19.20
2015,07,13,12,22,19.10
2015,07,13,12,23,19.00
2015,07,13,12,24,18.80
2015,07,13,12,25,18.60
2015,07,13,12,26,18.50
2015,07,13,12,27,18.50
2015,07,13,12,28,18.40
2015,07,13,12,29,18.40
2015,07,13,12,30,18.40
2015,07,13,12,31,18.30
2015,07,13,12,32,18.40
2015,07,13,12,33,18.40
2015,07,13,12,34,18.40
2015,07,13,12,35,18.50
2015,07,13,12,36,18.60
2015,07,13,12,37,18.70
2015,07,13,12,38,18.80
2015,07,13,12,39,18.80
2015,07,13,12,40,18.80
2015,07,13,12,41,18.90
2015,07,13,12,42,19.00
2015,07,13,12,43,19.10
2015,07,13,12,44,19.20
2015,07,13,12,45,19.30
2015,07,13,12,46,19.40
2015,07,13,12,47,19.50
2015,07,13,12,48,19.50
2015,07,13,12,49,19.60
2015,07,13,12,50,19.70
2015,07,13,12,51,19.80
2015,07,13,12,52,19.90
2015,07,13,12,53,19.90
2015,07,13,12,54,20.00
2015,07,13,12,55,20.10
2015,07,13,12,56,20.20
2015,07,13,12,57,20.20
2015,07,13,12,58,20.30
2015,07,13,12,59,20.30
2015,07,13,13,00,20.30
2015,07,13,13,01,20.40
2015,07,13,13,02,20.40
2015,07,13,13,03,20.40
2015,07,13,13,04,20.50
2015,07,13,13,05,20.50
2015,07,13,13,06,20.50
2015,07,13,13,07,20.60
2015,07,13,13,08,20.60
2015,07,13,13,09,20.60
2015,07,13,13,10,20.60
2015,07,13,13,11,20.70
2015,07,13,13,12,20.70
2015,07,13,13,13,20.70
2015,07,13,13,14,20.70
2015,07,13,13,15,20.70
2015,07,13,13,16,20.70
2015,07,13,13,17,20.70
2015,07,13,13,18,20.70
2015,07,13,13,19,20.60
2015,07,13,13,20,20.50
2015,07,13,13,21,20.40
2015,07,13,13,22,20.30
2015,07,13,13,23,20.30
2015,07,13,13,24,20.30
2015,07,13,13,25,20.20
2015,07,13,13,26,20.20
2015,07,13,13,27,20.10
2015,07,13,13,28,20.10
2015,07,13,13,29,20.10
2015,07,13,13,30,20.20
2015,07,13,13,31,20.20
2015,07,13,13,32,20.20
2015,07,13,13,33,20.30
2015,07,13,13,34,20.40
2015,07,13,13,35,20.40
2015,07,13,13,36,20.50
2015,07,13,13,37,20.60
2015,07,13,13,38,20.70
2015,07,13,13,39,20.80
2015,07,13,13,40,20.90
2015,07,13,13,41,20.90
2015,07,13,13,42,21.00
2015,07,13,13,43,21.10
2015,07,13,13,44,21.20
2015,07,13,13,45,21.30
2015,07,13,13,46,21.40
2015,07,13,13,47,21.50
2015,07,13,13,48,21.60
2015,07,13,13,49,21.70
2015,07,13,13,50,21.80
2015,07,13,13,51,21.90
2015,07,13,13,52,21.90
2015,07,13,13,53,22.00
2015,07,13,13,54,22.00
2015,07,13,13,55,22.10
2015,07,13,13,56,22.10
2015,07,13,13,57,22.20
2015,07,13,13,58,22.30
2015,07,13,13,59,22.40
2015,07,13,14,00,22.40
2015,07,13,14,01,22.30
2015,07,13,14,02,22.30
2015,07,13,14,03,22.40
2015,07,13,14,04,22.40
2015,07,13,14,05,22.50
2015,07,13,14,06,22.60
2015,07,13,14,07,22.70
2015,07,13,14,08,22.70
2015,07,13,14,09,22.80
2015,07,13,14,10,22.80
2015,07,13,14,11,22.80
2015,07,13,14,12,22.90
2015,07,13,14,13,22.90
2015,07,13,14,14,22.90
2015,07,13,14,15,22.90
2015,07,13,14,16,22.80
2015,07,13,14,17,22.80
2015,07,13,14,18,22.90
2015,07,13,14,19,22.80
2015,07,13,14,20,22.80
2015,07,13,14,21,22.80
2015,07,13,14,22,22.70
2015,07,13,14,23,22.60
2015,07,13,14,24,22.60
2015,07,13,14,25,22.60
2015,07,13,14,26,22.60
2015,07,13,14,27,22.50
2015,07,13,14,28,22.50
2015,07,13,14,29,22.40
2015,07,13,14,30,22.40
2015,07,13,14,31,22.50
2015,07,13,14,32,22.50
2015,07,13,14,33,22.50
2015,07,13,14,34,22.40
2015,07,13,14,35,22.50
2015,07,13,14,36,22.50
2015,07,13,14,37,22.40
2015,07,13,14,38,22.40
2015,07,13,14,39,22.40
2015,07,13,14,40,22.40
2015,07,13,14,41,22.40
2015,07,13,14,42,22.40
2015,07,13,14,43,22.40
2015,07,13,14,44,22.30
2015,07,13,14,45,22.30
2015,07,13,14,46,22.20
2015,07,13,14,47,22.20
2015,07,13,14,48,22.20
2015,07,13,14,49,22.20
2015,07,13,14,50,22.20
2015,07,13,14,51,22.10
2015,07,13,14,52,22.10
2015,07,13,14,53,22.10
2015,07,13,14,54,22.10
2015,07,13,14,55,22.20
2015,07,13,14,56,22.20
2015,07,13,14,57,22.20
2015,07,13,14,58,22.10
2015,07,13,14,59,22.20
2015,07,13,15,00,22.20
2015,07,13,15,01,22.20
2015,07,13,15,02,22.20
2015,07,13,15,03,22.20
2015,07,13,15,04,22.20
2015,07,13,15,05,22.20
2015,07,13,15,06,22.30
2015,07,13,15,07,22.30
2015,07,13,15,08,22.40
2015,07,13,15,09,22.40
2015,07,13,15,10,22.40
2015,07,13,15,11,22.50
2015,07,13,15,12,22.50
2015,07,13,15,13,22.60
2015,07,13,15,14,22.60
2015,07,13,15,15,22.70
2015,07,13,15,16,22.80
2015,07,13,15,17,22.90
2015,07,13,15,18,22.90
2015,07,13,15,19,23.00
2015,07,13,15,20,23.00
2015,07,13,15,21,23.10
2015,07,13,15,22,23.20
2015,07,13,15,23,23.30
2015,07,13,15,24,23.40
2015,07,13,15,25,23.40
2015,07,13,15,26,23.50
2015,07,13,15,27,23.50
2015,07,13,15,28,23.60
2015,07,13,15,29,23.60
2015,07,13,15,30,23.70
2015,07,13,15,31,23.70
2015,07,13,15,32,23.80
2015,07,13,15,33,23.80
2015,07,13,15,34,23.80
2015,07,13,15,35,23.80
2015,07,13,15,36,23.70
2015,07,13,15,37,23.60
2015,07,13,15,38,23.50
2015,07,13,15,39,23.40
2015,07,13,15,40,23.30
2015,07,13,15,41,23.20
2015,07,13,15,42,23.10
2015,07,13,15,43,23.00
2015,07,13,15,44,22.90
2015,07,13,15,45,22.80
2015,07,13,15,46,22.70
2015,07,13,15,47,22.60
2015,07,13,15,48,22.60
2015,07,13,15,49,22.50
2015,07,13,15,50,22.50
2015,07,13,15,51,22.40
2015,07,13,15,52,22.40
2015,07,13,15,53,22.40
2015,07,13,15,54,22.40
2015,07,13,15,55,22.40
2015,07,13,15,56,22.50
2015,07,13,15,57,22.60
2015,07,13,15,58,22.70
2015,07,13,15,59,22.70
2015,07,13,16,00,22.80
2015,07,13,16,01,22.90
2015,07,13,16,02,22.90
2015,07,13,16,03,23.00
2015,07,13,16,04,23.00
2015,07,13,16,05,23.00
2015,07,13,16,06,23.10
2015,07,13,16,07,23.10
2015,07,13,16,08,23.10
2015,07,13,16,09,23.20
2015,07,13,16,10,23.20
2015,07,13,16,11,23.30
2015,07,13,16,12,23.30
2015,07,13,16,13,23.30
2015,07,13,16,14,23.30
2015,07,13,16,15,23.40
2015,07,13,16,16,23.40
2015,07,13,16,17,23.50
2015,07,13,16,18,23.50
2015,07,13,16,19,23.50
2015,07,13,16,20,23.50
2015,07,13,16,21,23.50
2015,07,13,16,22,23.40
2015,07,13,16,23,23.40
2015,07,13,16,24,23.40
2015,07,13,16,25,23.40
2015,07,13,16,26,23.40
2015,07,13,16,27,23.30
2015,07,13,16,28,23.30
2015,07,13,16,29,23.30
2015,07,13,16,30,23.30
2015,07,13,16,31,23.30
2015,07,13,16,32,23.20
2015,07,13,16,33,23.20
2015,07,13,16,34,23.10
2015,07,13,16,35,23.10
2015,07,13,16,36,23.10
2015,07,13,16,37,23.00
2015,07,13,16,38,23.00
2015,07,13,16,39,23.00
2015,07,13,16,40,23.10
2015,07,13,16,41,23.20
2015,07,13,16,42,23.20
2015,07,13,16,43,23.20
2015,07,13,16,44,23.20
2015,07,13,16,45,23.30
2015,07,13,16,46,23.30
2015,07,13,16,47,23.20
2015,07,13,16,48,23.20
2015,07,13,16,49,23.10
2015,07,13,16,50,23.10
2015,07,13,16,51,23.10
2015,07,13,16,52,23.20
2015,07,13,16,53,23.20
2015,07,13,16,54,23.10
2015,07,13,16,55,23.10
2015,07,13,16,56,23.10
2015,07,13,16,57,23.00
2015,07,13,16,58,23.00
2015,07,13,16,59,23.00
2015,07,13,17,00,23.00
2015,07,13,17,01,23.00
2015,07,13,17,02,23.00
2015,07,13,17,03,23.10
2015,07,13,17,04,23.10
2015,07,13,17,05,23.20
2015,07,13,17,06,23.10
2015,07,13,17,07,23.10
2015,07,13,17,08,23.10
2015,07,13,17,09,23.10
2015,07,13,17,10,23.10
2015,07,13,17,11,23.10
2015,07,13,17,12,23.10
2015,07,13,17,13,23.00
2015,07,13,17,14,23.00
2015,07,13,17,15,22.90
2015,07,13,17,16,22.90
2015,07,13,17,17,22.80
2015,07,13,17,18,22.80
2015,07,13,17,19,22.70
2015,07,13,17,20,22.70
2015,07,13,17,21,22.60
2015,07,13,17,22,22.50
2015,07,13,17,23,22.40
2015,07,13,17,24,22.30
2015,07,13,17,25,22.20
2015,07,13,17,26,22.10
2015,07,13,17,27,21.90
2015,07,13,17,28,21.80
2015,07,13,17,29,21.70
2015,07,13,17,30,21.60
2015,07,13,17,31,21.60
2015,07,13,17,32,21.70
2015,07,13,17,33,21.70
2015,07,13,17,34,21.70
2015,07,13,17,35,21.80
2015,07,13,17,36,21.80
2015,07,13,17,37,21.90
2015,07,13,17,38,22.00
2015,07,13,17,39,22.10
2015,07,13,17,40,22.30
2015,07,13,17,41,22.40
2015,07,13,17,42,22.50
2015,07,13,17,43,22.70
2015,07,13,17,44,22.80
2015,07,13,17,45,22.90
2015,07,13,17,46,23.00
2015,07,13,17,47,23.20
2015,07,13,17,48,23.30
2015,07,13,17,49,23.40
2015,07,13,17,50,23.50
2015,07,13,17,51,23.50
2015,07,13,17,52,23.60
2015,07,13,17,53,23.60
2015,07,13,17,54,23.60
2015,07,13,17,55,23.60
2015,07,13,17,56,23.50
2015,07,13,17,57,23.50
2015,07,13,17,58,23.50
2015,07,13,17,59,23.50
2015,07,13,18,00,23.60
2015,07,13,18,01,23.60
2015,07,13,18,02,23.70
2015,07,13,18,03,23.70
2015,07,13,18,04,23.70
2015,07,13,18,05,23.60
2015,07,13,18,06,23.60
2015,07,13,18,07,23.60
2015,07,13,18,08,23.50
2015,07,13,18,09,23.50
2015,07,13,18,10,23.30
2015,07,13,18,11,23.30
2015,07,13,18,12,23.20
2015,07,13,18,13,23.10
2015,07,13,18,14,23.00
2015,07,13,18,15,23.00
2015,07,13,18,16,22.90
2015,07,13,18,17,22.90